Lid_Strength_Index
2 2 2 2 3 3 4 3 3 4 4 4 3 3 4 5 4 4 4 4 5 5
1 2 2 3 3 3 3 4 4 4 5 3 3 4 5 4 4 4 5 5 5 5
1 1 2 3 3 4 4 4 5 4 4 4 4 4 4 4 4 5 6 6 5 6
2 1 2 3 3 4 4 5 4 4 5 4 5 4 4 4 4 5 5 6 6 7
2 1 3 4 4 4 5 4 4 4 4 4 4 4 4 4 4 5 6 7 8 9
3 3 4 4 5 4 4 4 4 4 4 5 4 4 4 4 5 6 7 8 9 10
3 4 4 4 5 4 5 6 6 6 6 5 4 4 3 5 7 7 9 10 11 12
4 5 5 5 6 7 7 7 7 8 8 7 5 5 4 5 7 9 10 11 12 12
5 5 6 7 8 8 8 8 9 9 8 8 6 7 6 6 8 9 10 12 13 13
6 7 8 8 8 9 10 10 11 11 10 10 8 8 8 8 10 12 13 14 14 13
7 8 8 8 9 10 10 12 12 13 12 10 8 9 10 11 13 14 14 14 14 15
7 8 8 9 10 11 12 13 13 13 11 10 10 10 11 13 14 14 14 13 14 14
7 8 9 10 11 12 12 13 13 12 12 11 12 11 11 12 12 13 13 13 13 10
8 8 9 10 11 12 13 12 13 13 13 13 12 12 11 11 11 12 13 13 13 12